Location: Caltech
(34.1382°N, 118.1253°W)
Time: 09:19:28
(UTC-07:00)

Cosmos 2219 - Visible Passes

Search period start: 23 July 2014 00:00
Search period end: 02 August 2014 00:00
Orbit: 834 x 861 km, 71.1° (Epoch: 22 July)

Date Brightness Start Highest point End Pass type
(mag) Time Alt. Az. Time Alt. Az. Time Alt. Az.
23 Jul 6.0 00:13:56 10° WNW 00:15:42 11° NW 00:17:28 10° NW visible
23 Jul 3.1 22:14:05 27° SSW 22:17:24 89° WNW 22:23:10 10° NNE visible
24 Jul 6.0 00:00:24 10° WNW 00:02:20 12° NW 00:04:16 10° NNW visible
24 Jul 3.1 21:58:37 12° SSW 22:04:03 89° ESE 22:09:49 10° NNE visible
24 Jul 6.0 23:46:52 10° WNW 23:48:57 12° NW 23:51:03 10° NNW visible
25 Jul 3.1 21:44:58 10° SSW 21:50:42 87° ESE 21:56:28 10° NNE visible
25 Jul 6.0 23:33:21 10° WNW 23:35:35 12° NW 23:37:50 10° NNW visible
26 Jul 3.1 21:31:37 10° SSW 21:37:21 85° ESE 21:43:07 10° NNE visible
26 Jul 6.1 23:19:51 10° WNW 23:22:13 13° NW 23:24:35 10° NNW visible
27 Jul 3.2 21:18:17 10° SSW 21:24:00 83° ESE 21:29:46 10° NNE visible
27 Jul 6.1 23:06:22 10° W 23:08:51 13° NW 23:11:21 10° NNW visible
28 Jul 3.2 21:04:56 10° SSW 21:10:40 81° ESE 21:16:25 10° NNE visible
28 Jul 6.1 22:52:53 10° W 22:55:29 13° NW 22:58:06 10° NNW visible
29 Jul 3.2 20:51:36 10° SSW 20:57:19 80° ESE 21:03:04 10° NNE visible
29 Jul 6.2 22:39:24 10° W 22:42:07 13° NW 22:44:51 10° NNW visible
30 Jul 3.2 20:38:15 10° SSW 20:43:59 78° ESE 20:49:43 10° NNE visible
30 Jul 6.2 22:25:56 10° W 22:28:45 14° NW 22:31:35 10° NNW visible
31 Jul 6.2 05:38:02 10° NNE 05:42:03 20° ENE 05:46:02 10° ESE visible
31 Jul 3.2 20:24:55 10° SSW 20:30:38 76° ESE 20:36:22 10° NNE visible
31 Jul 6.3 22:12:28 10° W 22:15:23 14° NW 22:18:19 10° NNW visible
01 Aug 6.3 05:24:44 10° NNE 05:28:41 19° ENE 05:32:36 10° ESE visible
01 Aug 3.2 20:11:35 10° SSW 20:17:17 74° ESE 20:23:01 10° NNE visible
01 Aug 6.3 21:59:00 10° W 22:02:01 14° NW 22:05:03 10° NNW visible
